Regional Weather Roundup
Issued by NWS Cleveland, OH

Home | Current Version | Previous Version | Text Only | Print | Product List | Glossary Off
Versions: 1 2 3 4 5 6 7 8 9 10 11 12 13 14 15 16 17 18 19 20 21 22 23 24 25 26 27 28 29 30 31 32 33 34 35 36 37 38 39 40 41 42 43 44 45 46 47 48 49 50

000
ASUS41 KCLE 301402
RWRCLE
OHIO REGIONAL WEATHER ROUNDUP
NATIONAL WEATHER SERVICE CLEVELAND, OH
1000 AM EDT SUN APR 30 2017

NOTE: "FAIR" INDICATES FEW OR NO CLOUDS BELOW 12,000 FEET WITH NO
SIGNIFICANT WEATHER AND/OR OBSTRUCTIONS TO VISIBILITY.

OHZ001>008-015>018-024>027-034-035-043-044-301500-
   NORTHWEST OHIO

CITY           SKY/WX    TMP DP  RH WIND       PRES   REMARKS
DEFIANCE       CLOUDY    49  48  97 NE8       29.92F FOG
FINDLAY        CLOUDY    59  55  87 SE6       29.91F FOG
TOLEDO EXPRESS CLOUDY    50  49  96 E13       29.94F
TOLEDO EXEC    CLOUDY    51  49  92 NE10      29.96F
LIMA           CLOUDY    68  64  87 S15       29.88F
$$

OHZ009>014-019>023-028>033-038-089-301500-
   NORTHEAST OHIO

CITY           SKY/WX    TMP DP  RH WIND       PRES   REMARKS
CLE-HOPKINS    CLOUDY    68  57  68 S7        29.99F
CLE-LAKEFRONT  MOSUNNY   57  51  80 N8        29.96F
CUY CO. ARPT   MOSUNNY   66  59  77 S12       29.98F
LORAIN-ELYRIA  CLOUDY    62  55  77 S10       29.97F
ASHTABULA      CLOUDY    59  52  77 CALM      30.02F
AKRON-CANTON   PTSUNNY   69  61  75 S8        30.01F
WOOSTER        CLOUDY    65  62  90 S8        30.00F
MANSFIELD      CLOUDY    64  61  90 S15       29.98S
YOUNGSTOWN     MOSUNNY   66  59  78 SE9       30.01F
$$

OHZ042-051>053-060>062-070>072-077>081-301500-
  SOUTHWEST OHIO

CITY           SKY/WX    TMP DP  RH WIND       PRES   REMARKS
CINC-COVINGTON CLOUDY    76  67  73 S17G25    29.92S
CINC-LUNKEN    CLOUDY    76  69  79 S14       29.91F
HAMILTON       MOSUNNY   74  68  81 VRB7      29.91F
DAYTON         CLOUDY    68  65  90 SE15      29.91F
WRIGHT-PAT AFB CLOUDY    71  71  99 SE8       29.91F
DAYTON GENERAL CLOUDY    74  67  78 S14       29.91F
WILMINGTON     CLOUDY    74  66  76 S15G23    29.94F
$$

OHZ036-037-039>041-045>050-054>059-063>069-073>076-082>088-301500-
  CENTRAL AND SOUTHEAST OHIO

CITY           SKY/WX    TMP DP  RH WIND       PRES   REMARKS
COLUMBUS       CLOUDY    71  65  81 SE7       29.97S
OSU AIRPORT    CLOUDY    70  66  87 SE8       29.96S
BOLTON FIELD   SUNNY     70  66  88 SE8       29.97F
RICKENBACK AFB CLOUDY    73  68  84 S9        29.95F
NEWARK         MOSUNNY   68  63  84 CALM      29.98F
MARION         CLOUDY    70  64  81 S12       29.95F
LANCASTER      CLOUDY    75  66  73 SE7       29.98F
ZANESVILLE     SUNNY     74  66  76 S10       30.00S
NEW PHILLY     NOT AVBL
$$



USA.gov is the U.S. government's official web portal to all federal, state and local government web resources and services.